Theta_e
310 318 324 330 334 329 332 337 337 339 337 332 332 332 332 331 331 333 335 340 339 331 337 327 317 317 318 317 317 317 317 318 318 317 316 316 316 315 315 315 321 327 331 333 334 333 332 331 331
320 321 327 333 331 334 339 340 341 337 336 334 333 333 332 331 330 331 334 338 337 331 337 337 320 318 320 318 318 318 318 319 319 319 319 320 320 320 321 324 328 327 332 333 334 336 335 334 333
319 325 334 333 336 340 340 339 338 336 334 329 332 329 329 331 331 332 338 339 337 332 335 338 323 318 321 320 319 319 318 320 320 321 322 322 322 323 326 331 333 334 334 334 334 336 336 336 335
325 329 332 335 340 340 343 338 337 337 333 329 329 330 330 329 331 333 338 339 337 333 333 337 326 318 321 322 320 320 319 320 322 323 324 325 326 326 327 333 335 336 335 335 334 336 335 335 336
328 333 332 331 331 333 335 338 339 337 334 331 329 331 330 330 330 332 336 338 336 335 335 336 327 320 320 323 322 320 320 321 323 324 326 330 332 332 334 337 337 337 336 336 336 335 333 333 334
334 332 331 329 328 329 332 331 331 333 332 332 330 331 331 330 330 331 334 337 336 335 336 339 336 322 319 322 323 322 321 322 324 325 326 330 333 335 337 337 337 337 337 335 335 335 335 332 332
332 333 331 330 330 330 330 330 331 332 332 331 331 331 331 330 330 330 334 335 336 335 335 340 344 341 319 321 324 323 322 323 326 326 327 330 333 337 334 335 332 331 332 333 334 335 335 333 332
329 331 333 332 333 332 330 329 329 331 331 331 330 331 332 332 330 331 333 334 335 336 336 335 341 343 340 338 327 324 324 325 327 328 329 331 335 332 326 325 326 328 329 330 331 332 332 332 332
329 332 333 333 332 331 330 330 330 330 331 330 330 329 330 329 329 331 333 335 335 335 336 336 338 341 340 337 340 332 328 329 331 331 330 333 331 330 331 330 327 323 326 328 329 330 330 330 331
332 333 332 332 331 331 331 330 330 330 331 331 331 330 330 329 330 331 332 332 334 335 335 337 339 341 340 336 338 343 339 337 336 334 334 334 331 333 331 329 327 324 325 328 329 330 330 331 330
331 334 332 331 331 331 331 331 330 330 331 330 331 331 331 330 330 331 332 333 332 334 335 336 339 342 341 337 339 341 338 337 337 336 334 332 332 332 331 330 329 329 328 327 327 329 329 329 328
331 331 331 331 330 331 331 331 330 330 331 330 330 330 330 330 330 332 333 333 331 332 334 336 337 343 343 338 340 338 337 337 335 333 333 333 333 332 332 330 329 329 328 326 328 328 329 329 329
327 329 330 329 330 330 330 330 330 331 330 330 329 330 330 330 330 329 333 332 331 331 333 336 338 342 343 341 340 338 335 334 332 330 332 333 332 332 332 331 330 329 329 326 327 329 329 329 328
324 325 326 328 328 329 329 330 330 329 329 329 329 327 327 327 329 329 331 331 332 332 333 336 339 342 343 342 340 338 335 332 332 329 332 333 332 332 332 331 330 329 329 329 328 328 328 328 328
325 326 326 326 327 327 328 330 329 328 328 328 327 326 327 327 328 330 329 330 331 333 333 337 339 342 343 342 340 336 333 332 329 331 333 333 333 332 333 332 331 330 331 330 328 328 327 326 327
324 326 328 327 327 327 328 330 327 326 326 326 326 326 326 326 327 328 329 330 332 333 333 335 338 341 344 341 339 334 331 329 329 332 333 334 333 333 333 332 332 331 331 331 329 327 327 326 326
324 327 328 328 327 324 324 327 327 327 326 326 326 326 326 327 327 327 328 329 331 333 333 334 336 340 342 340 336 333 331 330 331 332 333 333 333 333 332 331 331 332 330 330 328 327 327 327 326
325 325 325 327 327 324 325 326 326 326 325 325 325 325 326 327 327 325 328 330 330 332 333 332 336 339 341 338 334 330 330 331 332 332 333 333 333 333 333 331 333 330 330 328 327 327 328 327 326
323 325 326 326 326 326 326 326 326 327 325 325 326 326 326 327 329 329 330 329 330 331 331 332 335 338 337 334 330 329 329 331 332 332 334 334 333 333 332 331 331 331 329 327 327 328 327 326 327
322 324 326 326 326 326 326 325 325 325 325 325 326 325 327 328 328 331 331 330 330 331 332 333 335 336 334 330 328 328 329 331 331 332 334 334 333 332 332 332 331 329 326 326 327 327 326 326 326
320 322 323 323 323 324 324 324 324 324 325 324 325 326 328 327 327 332 332 331 331 331 333 334 335 334 331 330 332 333 333 333 332 333 333 333 333 332 331 330 330 328 327 328 328 327 326 326 327
321 320 319 320 322 324 322 325 325 324 324 324 325 326 327 327 330 332 333 332 332 332 332 333 334 333 332 332 330 330 329 329 331 332 332 331 331 329 329 330 329 328 329 328 327 326 326 327 328
320 318 319 320 321 322 322 323 323 324 325 325 326 327 328 327 331 332 332 331 331 331 332 333 333 333 333 331 330 331 331 331 332 331 332 331 331 330 328 329 329 328 328 328 327 327 327 328 329
318 318 319 320 321 323 322 323 324 325 326 326 326 325 326 331 332 332 331 330 331 331 332 332 333 332 332 332 332 333 334 333 332 331 331 330 331 330 329 328 328 328 328 328 328 327 328 329 329
317 320 323 324 325 324 323 323 324 327 327 325 325 328 332 333 333 333 333 332 331 331 331 332 332 332 332 332 332 334 335 334 333 332 330 331 330 330 329 329 329 329 330 329 328 328 328 329 330
318 321 321 323 323 323 323 324 325 325 324 327 324 326 330 334 334 333 333 332 331 331 331 330 331 331 331 331 333 334 334 331 331 331 329 330 330 329 329 329 329 330 330 330 330 329 329 329 329
320 321 321 320 323 325 325 326 327 326 326 325 329 328 331 334 334 333 332 332 330 331 331 331 331 330 330 330 334 334 334 332 331 331 330 329 330 328 329 329 329 329 329 331 331 331 330 330 330
320 321 322 320 324 323 321 326 329 328 327 326 327 330 333 334 333 333 332 332 331 331 331 331 330 329 330 333 333 333 333 332 331 330 329 329 329 328 329 329 330 330 330 331 331 331 331 331 331
319 322 321 322 320 323 323 323 323 327 328 330 331 333 334 334 333 332 332 331 331 331 332 332 329 329 330 332 332 332 332 332 331 330 328 329 329 328 328 328 329 329 330 332 332 331 331 331 331
318 320 322 321 322 321 321 321 326 328 329 330 331 333 334 334 332 332 332 331 331 331 331 330 328 328 330 331 331 332 331 332 331 330 329 328 328 328 327 328 328 328 331 331 330 329 329 330 331
Wind_Speed
14 14 11 7 6 5 9 5 2 5 6 3 5 7 6 10 10 7 3 11 10 23 26 33 32 28 25 22 20 17 16 13 11 9 9 8 8 7 8 7 7 6 5 5 5 5 5 6 6
15 13 8 3 7 9 9 8 9 1 5 8 10 13 11 12 4 5 6 13 13 23 26 29 32 29 27 23 20 18 16 14 12 11 11 10 10 9 9 9 9 8 8 7 7 8 7 7 7
15 9 6 5 9 11 4 9 6 1 4 2 3 3 4 2 1 4 3 16 16 21 25 27 32 31 27 23 21 19 17 15 13 13 13 13 13 12 12 11 12 12 11 11 10 11 10 10 9
14 7 5 9 13 11 9 6 2 5 2 1 4 7 3 3 2 3 1 16 16 19 22 25 30 32 28 25 22 20 18 16 15 14 14 14 14 15 14 13 13 14 14 14 14 13 11 11 12
10 5 10 12 17 12 9 13 13 11 4 6 2 3 5 4 4 5 3 14 16 20 23 23 31 32 31 27 24 22 20 18 16 15 15 14 14 15 17 17 16 17 17 18 16 15 15 14 12
8 6 10 13 16 11 11 12 12 14 10 7 6 6 5 4 7 6 3 11 16 18 22 20 27 33 33 30 26 24 21 19 17 16 14 14 14 17 18 16 16 16 16 16 17 17 15 15 14
14 10 15 15 15 13 10 5 12 11 9 9 4 9 4 1 11 9 6 9 17 18 22 20 20 29 34 31 28 25 22 20 18 17 15 14 15 16 16 16 16 16 16 16 16 16 16 16 16
10 10 18 12 14 14 3 6 5 7 8 3 4 7 7 11 10 11 10 11 15 20 22 24 22 24 26 25 28 25 22 20 19 18 16 14 16 17 15 16 15 14 14 14 15 17 18 18 17
15 11 14 19 19 16 9 10 4 3 10 11 12 14 14 18 15 14 13 12 15 21 24 23 23 23 24 23 21 25 22 20 19 17 17 15 13 12 12 13 16 15 12 12 12 12 14 16 18
16 15 23 21 20 19 19 12 14 10 15 21 17 20 18 16 18 16 18 17 15 22 25 26 24 23 23 22 19 20 19 17 16 16 13 13 13 12 12 14 15 15 13 12 12 12 13 12 14
21 26 24 22 24 20 22 20 20 19 19 23 22 22 21 22 21 19 20 20 19 18 25 26 24 24 24 23 22 19 18 17 16 15 14 13 12 12 11 12 11 10 10 10 11 11 11 12 12
29 28 23 25 25 20 21 24 23 23 22 26 24 23 24 23 21 19 20 19 19 17 23 26 27 25 25 23 21 19 18 16 14 13 14 13 12 12 12 12 11 11 11 11 10 11 10 11 13
33 27 25 22 23 22 23 26 29 27 24 26 22 22 20 20 22 26 21 21 20 21 20 28 29 28 26 24 21 20 18 16 14 12 12 13 13 12 12 12 12 13 13 12 12 11 11 10 11
25 26 30 25 24 23 24 27 28 27 22 27 23 22 20 21 21 22 20 23 18 19 20 25 30 27 24 25 22 20 18 15 13 12 12 12 13 13 14 13 14 15 14 14 13 12 11 11 11
24 26 26 20 21 24 21 26 29 24 25 25 21 20 18 17 20 18 19 21 21 17 18 26 28 27 27 25 22 19 17 15 13 11 11 12 12 14 15 15 15 15 14 15 13 13 11 12 12
21 25 25 24 22 19 16 33 23 18 21 18 17 17 17 19 19 22 22 20 20 18 19 25 28 30 28 26 23 19 16 14 12 11 10 11 14 16 17 16 16 15 14 14 14 13 13 12 12
25 25 31 26 22 17 21 35 25 18 15 14 17 20 17 19 20 25 23 23 21 18 20 25 27 29 28 24 20 17 14 14 11 10 10 11 13 16 17 18 16 13 13 13 14 13 12 14 13
27 24 25 28 17 18 24 31 24 23 21 22 20 19 20 19 23 24 21 17 18 14 18 22 27 28 27 23 19 16 14 12 10 10 10 11 13 14 15 16 13 13 12 13 14 12 12 15 12
25 27 30 26 23 26 27 29 29 27 21 23 24 20 22 22 21 20 11 9 8 11 16 20 25 26 26 24 22 18 16 12 10 9 10 10 11 12 13 14 12 12 13 14 11 12 13 15 12
27 29 30 26 23 23 23 26 27 24 23 25 26 24 22 20 18 13 5 7 9 12 16 20 22 25 23 21 17 14 12 9 7 7 8 9 10 11 11 12 11 12 12 14 14 14 13 12 13
31 30 26 26 19 20 22 27 27 27 30 27 24 22 19 20 19 12 6 8 11 15 18 22 24 24 21 18 15 12 8 5 6 8 8 7 9 9 9 10 11 10 12 13 13 12 12 11 12
32 25 23 20 19 21 18 22 24 21 25 24 23 22 22 18 14 8 8 9 12 16 19 23 25 24 19 17 14 12 8 6 3 4 5 6 7 6 6 7 8 9 10 10 8 8 10 10 10
27 14 19 21 19 20 23 15 21 22 22 21 21 22 19 15 7 8 10 12 15 19 23 24 24 21 19 15 13 11 6 5 5 5 5 6 6 5 5 5 6 8 8 7 5 5 7 7 7
19 14 18 16 14 18 21 19 18 20 24 21 13 12 10 8 6 9 12 16 18 22 24 25 23 19 18 15 12 8 6 4 5 5 7 6 5 6 5 5 6 6 6 4 5 6 6 6 6
23 21 10 11 11 12 16 14 21 21 17 14 12 5 8 7 11 13 15 15 21 25 25 24 22 19 17 14 12 9 5 5 4 6 5 2 5 6 6 6 5 5 5 4 6 7 6 6 5
29 25 12 16 12 13 18 10 12 11 14 11 13 10 3 7 11 14 15 16 23 25 24 22 21 18 16 14 12 8 6 5 3 2 1 2 5 7 7 5 4 2 3 5 7 8 8 8 7
32 23 23 10 3 6 8 10 12 20 19 12 5 9 7 9 12 15 16 18 23 23 22 21 20 17 15 14 12 9 7 4 3 3 3 5 7 8 7 4 2 2 2 4 6 7 9 7 6
29 24 20 13 15 13 8 11 8 5 5 9 10 8 11 13 14 16 16 18 22 21 20 19 17 16 15 14 12 10 8 6 5 5 4 6 9 8 6 3 2 3 2 1 3 4 5 6 4
17 22 20 14 10 10 4 5 10 12 4 1 6 8 15 16 16 16 17 20 22 21 20 19 16 15 15 13 12 9 8 7 6 6 6 7 8 8 6 3 1 1 2 2 2 1 4 5 6
24 20 22 14 18 11 5 5 4 1 3 4 3 10 15 17 18 18 18 19 21 20 20 19 16 15 16 13 12 9 7 7 7 7 7 7 8 8 6 4 1 1 2 3 4 3 4 6 7
Wind_Direction
158 153 162 195 234 237 237 205 280 200 196 178 261 238 257 314 305 333 114 178 160 172 177 184 189 190 193 195 193 195 197 201 209 219 228 233 233 238 243 250 250 259 264 266 267 262 247 249 254
159 162 207 234 252 223 195 194 194 172 342 302 261 243 253 264 321 286 237 182 169 173 177 182 193 196 198 197 199 202 206 211 218 225 231 237 248 255 256 252 254 259 260 261 264 265 258 250 246
162 186 240 227 241 250 254 179 138 321 322 318 243 273 313 284 209 314 18 168 166 178 181 186 198 200 201 202 205 208 214 220 227 231 236 243 251 259 262 251 253 259 264 269 266 261 260 263 252
170 197 231 244 235 242 271 167 189 295 155 254 333 265 215 306 342 337 213 175 177 185 187 195 204 202 203 206 209 213 219 224 231 237 244 248 255 263 268 259 252 255 259 264 266 264 267 273 263
209 240 246 239 249 260 259 270 283 272 264 254 313 288 278 87 2 303 232 193 191 190 192 196 210 206 206 209 213 216 222 227 231 240 247 251 255 258 258 258 261 258 259 261 258 261 261 264 267
209 263 239 242 245 235 261 276 264 259 264 246 249 273 281 78 10 3 256 221 212 203 197 198 212 210 209 211 215 219 223 228 231 240 248 254 255 256 257 257 261 266 270 269 262 258 258 261 262
240 222 256 269 277 276 285 273 258 269 249 227 316 277 278 281 2 339 300 252 225 215 206 201 206 209 211 213 217 221 224 228 230 236 242 248 252 254 256 257 260 265 268 268 267 265 257 256 260
233 253 257 260 267 280 303 260 286 240 264 23 273 263 250 347 328 315 296 276 239 222 214 209 205 208 206 209 218 224 226 229 233 237 240 246 246 252 257 264 278 274 270 267 262 260 259 259 258
236 235 247 256 263 265 230 264 136 313 265 266 285 275 302 303 300 291 282 274 253 230 218 214 209 206 205 205 213 221 225 230 233 239 246 246 249 253 259 265 270 272 271 271 269 264 257 257 258
223 230 246 261 273 268 283 247 285 273 271 275 268 266 269 275 277 277 279 277 249 236 223 213 210 207 202 202 205 209 213 220 230 235 240 243 248 256 258 262 279 279 276 267 262 260 263 248 256
235 245 257 250 259 259 278 273 273 276 276 271 288 303 295 294 289 276 268 274 275 241 228 218 208 202 204 201 199 204 206 217 223 230 236 242 251 260 267 268 274 276 277 273 262 260 252 250 260
243 253 253 263 260 258 260 274 280 274 276 277 287 293 291 288 284 282 267 270 275 260 228 217 211 202 203 205 200 201 204 212 219 232 234 239 249 256 263 263 268 265 267 262 256 255 256 260 253
245 252 262 250 265 268 275 271 274 277 279 280 283 285 284 283 280 278 271 271 269 260 236 216 209 206 200 203 200 198 207 211 222 231 236 237 248 257 260 258 258 256 258 254 252 259 259 260 252
249 254 255 263 260 264 266 269 271 268 272 281 282 285 286 285 283 275 273 268 259 256 234 214 211 206 197 196 201 193 199 210 220 229 236 237 245 254 256 254 253 250 252 251 252 248 253 257 259
253 257 260 249 256 254 264 269 257 265 265 271 278 283 282 286 285 274 270 268 267 249 231 212 206 204 196 192 194 196 200 206 220 227 232 238 244 252 252 255 254 255 253 250 246 247 243 249 248
246 239 248 236 236 242 239 261 265 279 272 270 276 281 291 288 284 284 274 273 261 249 219 203 201 199 193 187 188 195 200 206 216 224 239 246 250 252 254 252 248 251 250 245 240 239 242 239 243
232 239 238 243 243 245 227 257 255 262 267 264 278 284 288 290 287 278 278 272 263 245 212 194 197 194 188 180 179 188 197 203 212 225 245 256 257 255 254 249 246 245 238 239 238 233 235 243 244
229 229 242 258 230 227 242 250 259 264 266 278 277 284 284 287 282 284 279 272 259 224 197 195 189 187 179 170 170 184 198 207 214 231 249 257 260 255 246 243 241 233 231 238 235 233 235 245 249
249 250 247 245 235 246 252 262 274 275 278 269 275 280 279 284 286 282 278 267 213 186 184 193 184 177 169 166 171 183 198 207 217 234 246 255 259 252 240 239 238 230 231 233 229 235 233 238 227
235 240 247 258 260 267 277 275 273 273 274 276 274 271 273 271 282 278 259 222 187 173 178 174 174 169 165 165 173 188 196 205 219 232 244 253 250 245 240 236 234 226 227 231 234 234 240 226 212
226 235 244 256 272 262 255 267 271 265 260 262 263 258 258 263 278 269 212 196 171 165 167 166 164 162 161 160 160 160 163 185 219 225 238 240 241 248 246 239 230 221 223 230 234 235 232 232 210
231 225 245 255 254 256 251 275 274 281 276 268 266 264 264 266 259 231 187 176 169 158 159 160 158 158 158 161 168 175 192 219 212 232 226 231 227 230 237 235 223 219 224 232 234 229 220 207 192
234 232 235 238 251 267 260 262 274 263 268 260 258 256 249 244 247 192 175 163 155 150 152 154 154 156 159 159 165 165 195 189 204 210 212 232 216 211 209 212 218 228 232 227 212 186 194 204 197
220 214 225 236 245 250 251 250 267 266 261 267 268 247 217 173 169 148 141 145 146 147 149 151 152 152 156 160 157 166 167 193 210 218 236 234 209 206 194 198 209 221 224 205 193 194 204 212 208
193 191 194 216 220 245 248 242 249 277 281 261 259 206 145 158 155 148 149 149 149 151 152 152 151 153 158 159 163 165 165 174 204 230 255 239 212 192 173 191 209 220 216 184 191 196 202 214 220
192 188 205 216 229 241 217 242 242 275 273 276 242 225 149 157 144 143 147 147 149 152 154 152 153 155 161 165 166 162 160 174 195 217 270 194 165 164 167 182 194 165 179 176 188 201 209 209 219
189 207 211 241 207 260 213 237 268 260 259 256 229 211 182 157 149 143 145 149 151 152 154 153 154 158 162 168 165 164 159 165 119 110 149 150 150 150 170 171 136 127 134 190 186 197 199 196 195
193 193 201 213 224 233 236 251 256 302 197 226 233 195 164 152 146 143 149 151 150 152 151 154 157 159 166 166 167 167 166 154 131 123 136 147 150 160 165 164 95 91 88 180 180 179 188 192 174
191 196 209 197 235 197 233 224 258 254 296 167 163 157 157 153 149 150 152 151 151 151 152 156 158 164 168 169 170 166 167 153 140 137 143 154 163 171 164 163 130 75 113 93 113 171 198 185 157
202 188 193 195 193 233 262 269 161 58 271 337 202 147 153 153 151 152 152 155 153 154 157 159 163 168 169 169 168 172 165 169 152 147 147 159 172 175 164 154 159 137 95 87 82 94 141 140 152